Theta_e
322 322 322 322 325 327 329 328 329 330 329 327 326 325 324 323 323 322 322 322 321 320 320 320 320 321 321 321 321 322 322 322 323 322 323 325 326 326 326 325 325 325 326 326 325 324 326 325 324 324 324 321 315 315 315 319 322 323 329 328 328 329 328 328 325 321 322 323 320 319 320 321 319 317 316 320 329 334 334 341 338 333 333 330 328 330 333 334
319 322 322 322 324 326 328 328 328 329 329 327 325 325 324 323 323 322 322 321 321 320 320 320 320 320 320 320 320 320 320 320 321 320 322 324 325 326 326 326 327 326 326 326 326 325 328 326 321 322 327 326 316 313 316 316 319 328 330 324 329 336 331 327 326 321 319 321 320 320 321 320 320 319 317 321 329 332 335 339 339 342 340 332 330 331 333 333
317 320 322 322 322 324 328 328 328 330 329 327 325 324 324 323 323 322 322 321 321 321 320 320 319 320 319 319 318 318 318 318 321 322 320 322 325 326 326 327 327 326 326 326 327 325 327 325 320 323 327 328 319 314 317 316 318 326 323 321 333 335 329 327 323 320 319 319 320 319 319 318 319 318 317 322 328 328 332 340 341 346 345 337 333 331 332 333
317 318 321 322 321 323 327 328 328 330 329 326 324 324 324 323 323 322 323 322 321 320 320 319 318 318 318 318 318 317 317 318 322 321 318 322 325 326 327 328 326 327 326 326 327 324 323 322 321 324 329 332 324 315 314 316 317 318 318 323 329 324 322 324 319 319 318 317 318 319 318 317 317 316 317 324 327 326 326 332 340 345 341 335 333 330 332 332
316 317 319 321 321 322 326 328 328 330 329 327 325 324 324 323 323 322 322 322 321 319 318 318 317 317 318 317 318 318 317 321 322 318 317 320 324 326 327 328 327 327 326 326 325 322 322 321 322 324 330 335 329 321 313 312 315 315 318 322 322 318 316 318 318 317 317 317 318 318 319 318 316 314 319 325 324 324 322 325 334 338 333 332 332 331 331 331
316 317 317 319 321 322 325 328 328 329 329 328 326 324 323 323 323 322 321 321 320 319 318 317 317 317 318 318 319 318 318 324 322 318 319 319 321 324 326 327 328 326 325 326 322 321 322 321 326 328 329 332 329 326 315 309 313 316 319 320 320 317 314 317 317 314 315 318 319 318 319 317 316 315 318 322 320 320 318 322 334 332 329 331 331 331 332 332
316 316 317 317 320 322 323 326 327 329 329 327 325 324 324 323 323 323 321 321 320 319 318 317 318 317 319 319 319 318 319 323 320 318 321 319 321 322 323 326 327 326 324 323 320 321 324 324 330 329 329 332 327 325 317 310 312 315 317 318 316 314 314 317 316 316 316 317 318 318 318 317 318 317 316 319 320 318 314 318 328 329 329 331 331 332 332 331
316 316 316 316 319 321 322 324 327 328 328 327 325 324 323 323 324 323 322 321 320 319 319 318 318 318 320 320 319 320 320 321 319 320 322 321 322 321 322 324 325 326 323 322 320 320 324 326 328 326 330 334 328 325 318 313 314 313 314 312 311 312 313 316 316 317 316 315 317 316 318 318 315 314 315 318 318 317 317 321 328 329 330 331 332 333 331 331
315 314 314 315 317 321 322 324 326 328 329 327 326 324 322 322 323 323 322 321 320 320 319 319 318 318 319 319 319 321 320 319 319 321 323 323 323 322 322 322 324 325 322 321 320 320 323 325 325 326 331 330 326 325 320 320 319 310 309 310 309 310 310 313 314 315 316 315 316 317 317 316 313 312 316 318 316 318 325 331 333 330 332 332 333 332 330 330
316 314 313 314 316 319 322 324 325 326 328 329 327 325 323 322 323 323 323 321 320 320 319 319 319 319 320 319 319 321 320 318 319 321 324 324 323 322 323 323 323 323 320 319 319 319 322 323 322 323 328 328 325 324 322 326 321 309 308 310 309 311 311 313 314 314 316 315 315 317 316 315 313 313 317 317 318 323 332 336 333 331 333 332 332 332 330 330
316 315 313 313 315 318 321 324 324 325 326 327 327 326 324 323 323 323 323 322 320 320 319 319 319 320 320 319 319 320 319 318 319 322 323 323 322 321 322 323 321 320 318 317 319 319 320 320 318 320 327 327 325 325 323 321 317 311 310 310 310 312 313 313 314 314 315 313 314 316 315 315 313 314 318 316 318 328 338 337 332 333 333 331 333 332 330 330
315 315 314 314 314 316 320 324 325 324 325 326 326 325 324 324 324 323 323 322 321 320 320 320 320 321 320 320 320 319 319 320 320 322 323 321 320 320 321 322 320 319 318 316 317 318 319 319 317 323 327 326 326 327 323 316 313 313 310 310 311 312 314 314 314 315 315 313 315 316 315 316 314 315 317 313 319 331 338 336 332 332 332 331 332 331 330 330
315 315 314 314 314 315 319 323 325 326 326 326 326 324 324 325 324 323 323 323 322 321 321 320 321 320 320 323 321 318 319 321 322 323 323 320 318 319 319 318 317 317 318 317 316 316 317 318 318 323 323 324 328 326 323 317 313 314 311 309 311 313 316 316 313 314 314 314 315 315 317 320 317 316 314 314 322 334 337 335 332 332 332 331 331 331 331 329
314 315 314 315 316 315 318 322 324 326 326 326 325 324 324 325 325 324 323 323 322 322 322 321 322 321 322 323 319 317 319 322 325 325 323 320 319 319 316 314 315 315 317 317 315 315 316 317 316 317 317 321 325 323 327 326 317 314 312 311 313 315 321 320 314 314 314 313 314 313 315 320 316 316 314 314 324 332 335 336 331 331 332 330 331 330 330 330
314 315 314 315 316 315 318 322 323 325 325 325 325 325 325 325 325 323 324 324 323 323 322 322 322 321 324 323 317 317 320 322 325 325 323 322 321 319 314 313 314 313 314 314 314 314 315 315 316 318 316 317 322 324 330 332 322 316 315 317 316 315 321 323 316 314 315 312 312 312 315 316 315 316 314 312 322 329 331 334 331 331 331 330 331 330 330 329
314 315 314 315 316 315 318 322 323 324 325 324 325 325 325 325 325 324 324 324 324 323 321 322 322 322 326 323 317 319 322 322 323 324 323 323 323 318 313 313 313 312 313 312 312 313 314 315 317 320 319 319 323 326 329 329 323 318 316 317 317 315 317 319 315 314 315 313 312 313 315 318 315 315 312 310 319 327 327 329 329 329 329 329 330 329 329 329
314 314 314 315 316 316 318 322 323 324 325 325 325 325 325 325 325 325 324 323 323 322 320 321 321 322 323 318 318 321 321 321 321 322 321 322 323 317 312 312 311 312 312 311 312 312 314 314 314 318 321 323 323 323 328 327 324 320 314 313 315 316 314 315 315 314 314 313 313 313 314 316 315 314 312 310 315 323 325 325 325 326 326 326 327 328 328 328
313 314 314 314 317 317 319 322 322 323 325 325 325 326 325 325 325 324 322 321 320 319 320 321 321 327 324 316 318 321 319 320 320 319 318 319 320 315 312 312 311 312 312 312 313 312 314 315 316 319 321 321 320 323 329 326 324 320 314 312 314 315 314 315 316 314 313 313 314 315 314 314 315 313 313 311 311 318 322 319 319 321 322 322 323 325 326 326
314 314 314 314 317 318 319 322 323 323 325 326 325 325 324 324 324 321 318 318 319 321 323 323 323 326 324 318 318 319 318 320 319 316 315 316 315 312 312 312 312 313 313 314 315 313 314 316 318 320 320 318 318 322 325 321 318 316 313 313 314 315 314 314 317 316 313 313 314 315 314 313 314 313 313 312 310 312 315 312 313 315 316 318 318 319 321 323
313 314 314 315 317 318 319 322 324 324 325 326 324 324 325 323 322 318 316 318 320 321 323 325 322 319 319 318 317 318 319 319 317 315 313 313 312 311 311 312 313 314 315 317 316 313 314 318 319 319 320 317 317 320 319 315 314 312 311 311 311 313 313 313 316 316 312 313 315 314 314 313 313 314 313 311 310 311 311 311 311 311 312 314 316 316 317 319
313 314 314 315 318 319 320 322 323 324 325 325 324 324 324 323 322 319 318 321 319 315 320 324 319 314 315 316 316 318 319 318 316 314 312 312 311 312 312 313 314 315 316 315 315 314 314 318 319 318 319 316 316 318 316 315 314 311 311 310 310 311 311 311 313 315 313 312 314 314 313 313 312 313 312 311 311 312 312 312 312 311 310 310 313 315 315 315
314 314 315 316 318 320 322 322 323 325 325 324 323 323 322 321 321 319 320 324 318 313 318 320 314 312 313 314 316 319 319 318 317 314 311 311 312 314 314 313 315 315 314 313 314 315 315 317 318 318 317 316 316 315 315 316 314 313 313 312 311 311 312 312 313 315 313 312 316 315 312 313 312 312 311 311 313 313 311 311 311 311 310 309 310 312 313 313
314 314 315 317 318 321 323 322 323 325 324 323 323 322 321 319 318 318 321 324 319 315 318 318 312 312 314 313 315 318 320 319 318 315 310 310 313 314 314 314 315 314 313 314 315 316 317 317 317 317 316 315 316 315 314 314 314 315 315 312 311 312 313 314 313 313 312 312 315 315 314 315 313 312 313 312 312 313 312 311 311 311 311 310 310 310 310 312
314 315 316 317 319 321 323 323 324 324 323 322 322 321 320 318 318 320 319 319 317 314 316 315 311 313 315 313 314 318 320 318 317 314 310 310 312 313 314 314 315 314 313 315 315 316 318 317 316 317 316 316 316 316 315 314 315 316 315 312 311 311 312 314 313 313 312 312 312 313 316 316 315 315 314 313 311 311 311 312 312 312 312 311 310 310 311 311
315 315 316 318 320 321 323 323 322 322 322 321 321 321 319 319 319 319 318 318 316 313 314 314 311 313 313 312 314 317 318 317 315 312 308 310 312 312 314 313 314 315 314 314 315 317 317 316 315 316 316 316 317 316 316 315 315 315 314 312 310 310 310 312 314 313 313 316 315 314 315 320 324 321 316 314 312 311 311 311 312 312 311 311 310 311 311 310
316 316 317 319 320 322 323 323 321 321 322 321 320 319 319 319 319 317 319 322 319 315 317 318 314 313 313 313 313 315 319 318 313 310 308 310 312 312 313 312 313 315 314 313 315 316 316 314 315 316 316 317 318 317 316 315 314 315 315 314 311 311 312 313 314 314 316 320 316 312 315 322 324 321 319 315 313 313 312 312 312 311 310 311 310 310 310 310
317 317 318 320 321 322 322 323 323 322 322 320 319 318 319 319 318 316 320 323 320 317 317 316 313 313 314 313 312 316 322 317 311 310 309 310 311 311 313 312 313 313 312 313 316 316 315 314 315 316 316 316 317 317 316 314 314 314 315 315 314 314 315 315 314 315 318 318 314 311 314 318 317 317 318 314 311 313 312 311 312 310 310 311 310 310 310 310
318 318 319 320 322 322 322 322 322 322 322 319 318 318 318 317 317 317 321 324 322 317 315 312 310 313 313 312 313 317 316 313 314 313 308 310 310 309 312 312 312 313 311 314 318 316 313 315 315 316 316 316 316 317 316 314 313 315 316 317 317 317 317 316 315 316 316 314 316 316 314 315 319 322 320 314 312 314 314 312 312 311 310 311 310 310 310 310
319 319 320 321 322 322 321 321 321 321 320 317 318 319 316 316 318 318 320 323 319 316 316 312 311 312 312 313 315 315 313 313 316 313 308 310 309 309 312 311 311 313 311 313 316 314 311 313 314 313 315 315 314 316 316 313 313 315 319 321 321 324 323 318 316 315 312 313 317 319 315 313 321 328 322 314 312 315 315 313 312 312 311 310 310 311 310 310
320 320 321 322 322 322 321 320 320 319 317 317 318 317 315 316 319 320 320 321 318 316 314 311 312 313 312 314 314 313 314 314 313 312 311 311 308 308 309 309 310 313 312 312 313 313 312 310 311 312 313 313 312 314 314 313 313 316 319 318 319 327 326 321 323 318 312 315 317 320 319 312 317 326 320 314 315 316 315 313 312 312 312 310 310 310 309 310
321 321 322 322 321 321 320 318 318 317 316 317 317 316 317 317 318 321 320 318 318 316 312 311 313 313 313 314 314 312 313 313 311 311 311 310 309 308 308 309 311 313 313 312 312 314 312 310 311 313 313 311 310 312 312 313 315 316 319 318 317 324 324 322 326 319 313 318 318 319 318 312 314 320 317 315 316 315 314 314 314 314 315 314 314 313 310 310
321 322 322 323 321 320 320 317 316 316 316 317 317 317 319 318 317 320 319 318 319 315 312 313 313 313 314 314 314 311 311 311 310 311 311 310 310 309 310 311 311 313 314 313 313 314 313 314 314 312 312 312 310 312 312 313 315 314 317 318 318 322 322 321 323 318 317 318 313 313 314 312 313 315 315 316 313 313 313 312 314 315 316 315 315 315 313 311
321 322 322 322 320 319 319 317 315 316 316 316 317 318 319 320 319 319 318 318 318 314 312 313 313 313 315 314 313 312 311 311 310 311 311 311 311 309 311 313 311 316 317 313 313 314 315 317 315 311 312 313 311 311 312 314 314 312 314 317 318 319 320 319 319 318 319 318 312 310 312 314 316 315 316 315 311 313 313 311 312 312 311 311 311 314 316 315
321 322 322 321 319 319 317 315 315 316 316 316 318 318 319 321 319 317 316 315 315 313 312 313 312 313 314 314 313 311 312 312 310 312 312 311 312 310 311 312 311 317 319 313 313 314 315 317 315 313 313 314 313 311 313 316 314 312 315 317 317 320 322 321 321 320 321 321 315 310 312 320 321 316 316 314 312 315 313 312 314 313 310 310 311 317 324 324
321 321 321 319 317 317 316 315 316 316 316 317 318 318 320 322 319 316 315 313 312 313 312 312 312 314 314 313 312 311 313 313 310 312 312 312 312 310 311 310 309 315 316 312 313 313 313 315 315 314 312 312 314 314 315 316 314 315 317 316 316 319 321 320 320 319 317 318 316 311 315 323 320 314 313 312 313 315 314 314 316 317 317 316 317 322 329 330
320 320 319 317 315 315 315 315 316 316 317 318 318 318 319 319 318 316 315 313 313 313 312 312 313 314 314 312 312 312 313 313 311 312 313 312 312 312 312 311 310 312 313 313 315 314 314 314 314 314 313 312 314 316 316 317 316 315 315 315 315 316 316 316 317 315 312 313 316 314 315 319 317 313 316 317 315 314 314 315 316 320 322 321 321 321 323 325
317 317 316 315 314 314 315 316 316 316 317 317 318 319 317 316 316 315 313 312 313 312 313 314 314 314 314 312 312 313 313 313 311 313 314 313 313 313 312 312 311 310 312 313 314 316 318 317 313 314 315 311 310 314 316 316 316 315 315 315 314 313 317 319 317 315 312 313 318 318 315 317 317 315 319 321 316 313 314 314 315 319 322 324 325 321 319 321
315 314 315 314 314 314 315 316 315 316 318 318 318 317 315 314 314 313 312 312 313 312 314 316 315 314 314 313 313 312 313 314 312 313 314 312 315 315 311 311 311 310 312 313 313 315 318 318 314 312 314 313 311 315 315 312 312 313 316 316 315 315 317 317 316 316 314 312 318 321 315 313 316 319 320 316 314 317 315 314 315 316 319 325 326 323 320 320
314 315 316 314 314 314 315 315 316 317 318 318 318 316 315 314 312 311 312 312 313 314 315 315 315 315 314 314 314 312 313 314 312 313 314 313 315 315 311 311 311 310 312 313 314 315 317 322 318 311 312 313 312 314 316 314 312 313 313 312 315 317 316 316 316 318 318 313 317 321 318 317 320 321 319 313 312 315 312 313 317 316 316 320 321 321 320 320
316 316 315 314 314 315 314 315 316 317 317 318 317 315 314 313 311 311 312 313 313 314 315 315 315 315 314 314 313 312 313 314 311 312 314 313 313 311 310 311 310 310 311 311 314 314 313 319 319 313 311 313 315 316 318 317 314 314 314 313 312 313 315 317 316 318 319 317 317 317 317 326 328 319 316 314 313 313 312 312 316 316 315 314 315 316 317 319
317 316 313 313 314 314 315 316 316 317 318 318 317 314 313 312 310 311 313 314 314 315 315 315 315 314 314 314 313 312 313 313 311 312 313 312 311 311 310 310 309 310 310 310 313 315 313 316 320 317 313 316 321 319 316 317 315 314 316 315 312 312 315 316 315 317 317 316 319 317 313 323 330 320 314 313 311 313 314 313 314 315 312 310 310 311 313 317
317 316 313 313 314 314 316 317 316 316 317 318 316 315 314 311 310 312 313 314 316 317 315 314 314 314 313 313 313 312 312 312 311 312 312 311 312 312 311 310 310 309 311 311 312 317 318 321 325 323 318 319 320 314 311 315 315 314 315 314 313 315 314 315 318 320 317 314 317 317 312 316 327 327 319 315 314 314 315 314 315 315 311 308 309 310 312 315
316 315 313 313 313 315 317 317 316 316 316 316 314 314 313 310 310 312 314 314 315 316 315 314 314 314 313 313 313 312 312 312 311 312 312 311 311 313 313 311 310 310 311 311 311 315 317 319 322 322 322 322 320 314 311 313 314 315 314 313 314 314 313 320 327 324 318 317 315 313 313 312 321 333 329 322 319 316 313 313 315 316 314 312 311 310 312 315
315 313 313 313 313 315 317 316 316 315 314 314 313 313 312 310 310 312 313 313 313 313 314 314 314 314 314 313 313 312 313 314 312 312 313 312 311 313 314 311 311 311 310 311 312 313 313 315 318 319 320 320 320 317 313 312 314 317 318 317 317 315 313 318 322 316 314 321 318 314 314 314 318 327 325 320 319 318 316 314 313 316 317 317 315 312 313 315
314 314 314 312 313 315 316 315 316 315 314 314 313 314 312 309 310 312 313 314 314 313 313 314 314 314 313 312 313 312 313 315 313 312 313 313 311 313 313 311 311 310 310 313 313 311 315 318 317 316 317 316 316 316 315 315 315 318 322 321 318 316 314 314 316 313 313 319 318 314 314 315 318 319 315 313 315 316 316 315 314 315 315 317 319 317 315 316
315 314 314 313 313 315 314 315 316 315 314 314 313 314 313 309 310 311 312 314 315 314 313 313 313 313 312 312 313 312 312 315 314 312 311 313 314 314 312 311 311 311 314 318 314 313 321 322 314 313 315 313 315 318 318 318 316 315 318 319 316 314 314 313 314 314 315 317 316 313 312 313 316 317 316 317 317 316 317 315 315 317 316 318 323 322 318 317
315 314 313 313 314 315 314 316 317 315 315 313 312 313 313 310 310 310 311 314 315 313 312 311 312 313 312 312 313 313 312 314 314 312 311 314 315 312 309 309 310 313 319 318 313 315 322 318 313 313 313 314 321 324 319 316 316 315 316 317 316 315 315 315 314 314 317 317 314 314 315 313 313 316 319 320 318 316 315 312 313 315 315 319 325 324 320 318
313 313 314 314 314 315 315 315 316 315 314 312 312 314 313 311 311 310 312 314 314 311 312 312 312 313 312 313 313 313 312 312 313 312 312 315 314 311 309 308 308 313 317 314 311 315 317 314 313 314 312 315 322 322 317 316 315 315 315 315 316 317 316 316 314 313 316 315 312 317 320 315 312 314 315 317 318 315 313 312 310 310 313 320 327 328 325 322
313 314 314 314 314 314 314 314 315 315 314 312 313 315 313 311 311 312 315 315 312 311 312 312 312 312 312 312 312 312 312 312 312 311 311 313 313 312 312 310 309 311 313 312 313 315 315 316 316 313 311 313 317 316 316 317 316 314 315 315 314 315 316 314 313 313 314 314 312 316 318 314 313 315 314 315 317 314 313 315 314 313 314 320 326 329 327 325
313 314 313 314 313 313 315 314 314 315 314 312 313 314 313 311 311 314 316 314 310 311 313 312 311 312 312 312 313 312 311 312 313 311 311 312 312 311 312 313 312 312 312 311 311 311 312 316 316 313 312 314 315 315 314 315 315 315 315 315 314 314 314 313 313 313 313 313 312 313 314 312 312 315 315 314 313 311 312 314 316 315 315 317 321 325 325 325
305 306 309 314 313 313 315 314 313 315 314 312 313 313 313 311 311 314 316 315 314 313 313 312 311 311 311 312 313 312 311 312 312 311 311 312 312 311 312 313 312 311 311 312 312 311 312 314 312 313 316 314 313 315 314 311 312 314 316 315 314 313 313 312 313 313 313 313 313 313 313 312 312 314 315 312 311 312 313 313 313 316 317 316 319 323 323 324
302 305 310 315 314 313 314 313 313 314 314 312 312 313 314 312 313 314 315 317 319 315 312 312 311 311 311 312 313 312 312 313 312 311 312 311 311 312 314 312 311 311 313 314 315 316 316 316 314 315 317 314 311 314 316 312 312 314 315 314 312 312 312 312 313 313 312 312 313 312 313 314 315 314 313 313 314 315 315 313 312 314 314 314 315 317 318 318
Wind_Speed
30 31 31 31 35 38 38 41 44 46 49 49 47 48 47 46 45 43 42 40 37 37 35 32 29 26 24 22 21 20 18 17 14 12 10 8 10 14 15 15 15 13 12 12 14 14 4 4 5 7 9 9 5 4 6 3 2 3 3 2 1 3 4 4 7 6 4 4 5 5 6 9 5 3 2 2 5 4 2 3 3 3 3 3 4 9 28 27
30 30 31 32 35 37 39 40 43 46 49 51 49 49 49 48 47 45 43 40 38 38 36 32 30 27 25 22 19 18 16 12 8 7 9 9 11 13 14 14 14 13 13 13 14 17 10 4 4 5 6 3 4 5 5 3 2 2 3 2 3 5 4 5 6 6 4 4 5 6 6 8 8 7 4 3 2 1 4 2 4 3 3 1 4 18 28 27
30 30 31 32 34 35 38 40 43 46 48 51 50 50 50 49 48 46 44 41 38 37 36 32 30 26 23 21 17 16 12 6 2 6 12 12 12 13 14 13 14 13 12 13 14 15 15 12 12 8 3 1 2 4 4 3 2 1 3 1 5 5 4 4 5 6 5 4 5 6 4 5 6 6 4 5 6 5 6 5 2 3 3 3 9 21 25 25
30 30 30 32 33 35 37 40 42 45 48 50 50 49 50 50 49 47 44 42 39 36 35 32 29 25 22 20 16 15 9 4 3 10 16 16 14 14 14 14 15 14 12 13 14 15 18 18 13 7 3 1 2 4 3 3 2 1 2 3 5 2 3 6 6 6 5 4 5 4 4 4 5 3 4 7 7 6 8 8 8 9 9 8 10 17 23 23
31 30 30 32 33 35 37 40 42 45 48 49 50 50 49 48 48 48 45 42 39 37 35 32 29 25 23 20 17 16 11 3 6 15 22 20 18 16 14 15 15 15 14 14 17 19 19 16 10 5 3 1 2 2 2 3 2 1 2 4 4 1 3 6 3 3 3 4 5 6 6 5 4 1 5 11 10 7 7 9 9 10 13 14 15 18 21 20
32 31 31 32 33 35 38 40 42 44 47 48 49 49 47 46 46 47 46 43 40 37 35 32 30 26 24 21 20 20 12 2 3 11 25 26 23 20 15 14 14 15 15 18 21 20 14 10 6 4 2 2 2 3 1 3 2 1 3 3 4 3 4 6 2 2 1 5 6 8 5 5 6 3 5 11 11 4 3 7 9 9 15 20 21 20 18 18
34 33 32 33 33 36 38 40 42 43 46 48 49 46 45 45 44 45 44 42 40 37 36 33 31 28 25 23 20 16 8 5 2 5 22 28 26 24 19 15 14 15 16 21 21 14 9 8 6 5 4 3 3 4 2 4 1 4 2 5 6 3 5 7 4 4 3 7 6 5 4 6 9 5 3 8 10 2 6 4 10 10 14 18 18 17 18 20
35 35 34 33 33 35 37 40 42 44 45 48 49 47 46 45 44 45 44 42 40 38 36 34 32 29 29 26 16 7 6 5 1 8 22 26 25 24 22 18 16 17 19 22 21 14 10 10 8 5 4 2 4 4 3 5 2 4 1 5 7 6 7 8 5 4 2 5 1 4 5 6 6 3 3 9 10 3 3 5 10 10 12 13 14 15 16 19
35 36 36 35 34 35 37 39 43 45 47 49 50 49 48 47 46 45 45 43 41 39 37 35 33 31 31 22 9 4 8 6 4 14 24 25 24 24 23 20 19 19 21 20 20 20 12 8 8 5 4 2 4 4 1 1 1 1 2 6 8 10 11 9 5 3 2 2 4 5 4 1 1 1 3 9 8 2 3 7 9 10 10 11 11 13 15 15
37 36 37 37 36 36 37 40 43 45 46 51 52 51 50 48 46 44 44 43 41 40 38 37 34 33 30 18 8 4 8 7 7 17 27 26 25 25 22 21 22 22 20 16 17 18 9 6 9 5 4 3 3 3 2 4 3 2 6 8 10 11 10 5 5 4 2 0 5 7 4 1 2 1 4 7 5 6 7 7 8 10 11 11 10 11 15 16
40 38 38 39 38 38 38 40 43 44 45 48 51 53 52 49 47 44 42 43 42 41 39 37 36 35 28 16 9 6 6 9 11 20 29 28 28 27 23 22 23 24 21 16 17 18 11 15 16 6 2 3 4 2 1 3 1 4 8 11 12 9 7 5 5 5 0 1 4 7 3 2 3 1 7 6 3 8 9 9 8 10 10 11 11 10 12 16
44 42 39 40 40 39 40 41 43 44 43 46 48 51 51 49 47 45 43 42 42 41 39 38 38 35 24 11 7 5 5 9 15 24 30 30 30 26 23 22 22 24 23 17 16 16 15 24 21 6 3 6 5 2 1 2 2 4 7 9 13 9 6 7 4 4 2 2 3 6 1 3 3 7 8 3 3 6 8 9 9 9 9 8 10 8 10 14
46 46 42 41 41 40 40 42 45 45 46 48 49 49 50 49 48 47 45 42 41 40 39 39 38 34 20 5 5 6 6 10 19 26 30 30 27 23 22 22 19 20 21 20 17 14 17 26 19 6 3 6 4 2 1 1 3 4 4 2 8 8 6 6 2 2 3 3 2 5 2 5 9 13 7 2 4 8 7 8 8 8 7 7 8 7 9 12
48 48 46 43 42 42 42 43 45 47 49 50 50 50 50 49 49 48 45 42 41 39 39 40 38 28 13 3 3 6 9 13 21 27 30 29 23 19 20 18 15 14 16 18 17 15 19 22 14 7 3 2 3 3 3 3 3 3 3 1 2 3 5 7 2 4 5 2 2 5 4 7 10 12 6 4 6 8 8 7 7 7 6 6 7 8 8 11
50 49 49 45 44 44 44 45 46 47 50 51 50 50 49 48 48 47 45 44 42 40 40 39 34 20 7 1 3 7 13 17 22 29 31 28 22 16 16 15 13 14 15 17 17 17 19 16 10 6 1 1 4 5 3 3 3 3 1 3 2 2 5 8 3 6 5 1 3 6 4 7 9 10 6 5 7 8 9 8 8 8 8 8 7 8 8 9
52 50 50 48 46 47 46 47 48 49 52 53 50 49 49 48 47 45 45 45 43 43 39 29 25 18 5 3 7 11 12 13 20 28 29 29 24 18 17 17 15 16 15 15 19 19 14 10 5 3 2 2 5 6 4 2 1 1 3 3 4 2 4 5 3 4 3 1 1 3 3 4 6 6 5 3 8 8 8 8 9 9 9 9 7 8 8 7
54 53 52 50 48 49 48 47 51 54 54 56 53 50 49 46 47 46 44 44 43 42 35 23 22 15 4 4 9 10 8 11 20 26 25 24 24 25 23 16 13 15 14 14 18 14 6 4 1 1 3 2 4 6 4 4 5 3 3 2 5 4 3 4 4 3 1 2 3 4 4 7 7 5 4 2 8 8 9 10 9 9 8 8 7 7 8 8
57 55 54 53 51 51 50 48 52 55 56 59 56 52 51 47 49 46 40 39 36 33 24 17 20 11 2 7 8 9 12 17 24 25 22 20 24 29 22 13 13 15 11 8 9 5 2 2 1 2 2 2 6 8 7 6 6 6 4 3 4 5 4 4 5 3 4 2 4 6 6 11 12 9 5 3 6 8 11 9 7 8 8 8 7 7 8 9
59 57 56 55 53 52 51 50 53 56 58 59 59 57 50 43 41 37 36 34 24 16 9 11 15 5 3 11 8 12 19 22 25 22 19 21 25 22 15 16 16 13 10 5 3 2 2 2 2 4 5 7 9 9 7 6 8 8 5 3 3 4 5 5 5 5 5 4 5 8 8 12 14 13 8 3 5 7 8 6 4 7 7 7 7 7 9 10
61 60 60 57 55 53 53 54 54 58 58 55 59 50 32 24 16 12 18 22 13 3 5 14 13 3 7 12 13 19 20 18 17 15 19 25 25 18 11 13 10 5 8 7 4 3 3 4 6 7 7 8 8 7 6 8 7 5 3 2 4 4 5 5 4 5 2 4 7 8 9 12 13 14 9 4 5 6 7 8 8 8 7 8 9 9 11 11
64 63 62 59 58 55 56 57 55 60 58 56 52 29 16 17 11 9 11 9 4 4 5 17 9 3 9 16 22 27 16 7 7 9 20 26 23 16 7 8 9 4 5 7 5 3 2 6 8 5 6 7 8 7 6 5 3 2 2 2 5 4 5 7 4 4 2 3 5 4 7 12 12 13 7 5 5 7 10 11 12 11 9 8 9 11 12 10
66 65 64 62 60 57 59 58 58 62 59 55 38 12 13 15 16 31 24 7 3 4 6 14 6 5 10 16 26 31 16 6 8 10 17 21 17 12 6 6 10 5 4 6 5 3 4 6 5 4 5 7 7 7 8 6 4 2 1 2 4 3 4 7 4 2 0 3 4 1 5 10 12 12 8 5 6 8 9 12 12 11 9 8 10 12 11 9
67 68 66 63 62 61 60 58 61 60 52 46 30 12 14 10 19 38 22 7 5 3 5 9 6 7 10 9 17 23 15 9 11 12 17 17 11 9 9 9 9 6 7 8 6 7 6 5 6 7 7 9 8 7 9 6 4 3 2 2 4 3 1 4 3 2 0 1 1 1 3 7 8 9 8 7 9 8 7 9 9 8 8 11 11 9 9 11
69 70 66 66 66 62 60 59 61 55 46 43 33 26 25 18 32 39 17 6 4 3 4 6 4 8 7 8 16 16 10 6 7 11 16 15 8 5 8 10 10 8 8 10 10 8 3 2 8 9 8 11 10 9 10 7 5 5 6 5 4 4 3 4 3 4 3 2 1 2 3 6 6 7 9 6 6 7 8 7 8 8 9 11 8 7 9 11
72 71 68 69 65 64 65 56 51 49 43 35 28 32 33 28 39 39 16 4 2 3 5 6 2 4 4 10 16 11 7 4 3 9 14 13 10 7 6 5 6 8 11 11 10 6 3 3 8 9 7 10 10 10 11 8 5 6 8 8 7 6 5 6 5 3 3 4 2 1 2 6 5 5 9 7 4 7 8 8 10 10 9 9 8 9 11 11
74 72 69 70 66 69 59 35 38 50 37 22 25 35 35 35 39 27 11 3 2 2 9 9 5 7 7 6 8 10 9 1 0 10 13 11 8 6 6 4 1 6 11 9 4 3 3 4 8 10 9 9 9 9 10 10 6 5 6 8 8 5 5 7 5 1 2 5 4 2 4 6 6 4 8 6 5 9 8 8 10 10 9 9 9 11 12 11
74 71 71 71 69 68 41 18 38 47 25 19 34 40 38 44 38 12 4 2 4 5 7 5 4 11 11 5 8 12 8 3 3 8 12 10 7 2 5 7 3 4 7 5 2 2 5 7 7 9 9 9 9 9 10 11 7 2 4 8 6 3 4 6 4 4 4 3 4 2 2 4 5 6 6 3 4 9 9 9 10 9 9 10 12 13 13 13
71 71 72 69 71 70 43 29 40 33 24 36 46 46 43 47 33 6 1 5 4 6 6 2 5 13 10 4 8 6 5 11 9 8 10 10 7 1 4 9 6 9 8 7 5 3 7 11 12 11 9 8 8 6 9 11 6 3 4 5 3 2 1 2 3 5 3 2 5 4 2 3 6 6 4 2 3 9 10 10 11 11 12 12 14 14 14 14
70 71 71 69 73 71 52 40 36 29 42 54 51 50 45 37 21 4 2 4 2 5 6 5 8 12 10 7 6 3 6 11 6 7 9 7 7 1 4 7 6 11 9 6 5 3 4 9 13 13 9 8 7 6 10 13 7 3 4 5 4 4 3 3 2 3 2 2 8 6 4 4 5 5 3 2 3 7 9 9 10 11 12 12 13 14 14 11
71 69 71 73 66 58 43 32 31 38 53 57 52 52 41 23 11 6 6 4 3 4 5 6 7 12 15 12 6 4 7 6 2 7 6 3 4 1 2 4 6 7 5 3 3 3 2 1 6 9 7 7 7 7 10 12 8 3 5 5 5 3 4 4 1 1 1 6 8 7 4 4 5 5 4 4 5 7 8 8 8 9 9 9 10 11 11 9
71 68 73 73 57 48 32 16 28 45 53 57 55 45 28 9 3 7 7 3 4 5 6 7 8 14 20 17 10 7 7 5 5 11 7 3 2 2 3 4 3 4 4 4 4 3 3 2 3 3 3 6 7 6 7 9 8 5 3 4 4 0 2 3 2 1 4 7 5 4 2 4 6 5 4 6 6 6 7 8 9 9 8 8 8 8 9 8
69 69 74 69 55 48 33 22 41 53 52 57 48 25 12 5 2 3 5 5 5 7 10 13 14 17 21 20 14 10 9 6 8 14 13 8 5 6 7 7 5 5 5 7 4 2 1 2 2 1 2 5 8 6 4 6 8 6 3 4 4 2 0 2 3 2 5 6 3 1 1 4 7 6 7 9 9 9 9 9 10 9 8 9 8 8 7 6
68 70 71 65 54 45 39 43 58 59 56 54 32 9 7 8 5 4 6 7 6 9 12 15 17 19 21 18 12 12 11 7 11 14 13 10 7 6 5 5 7 7 4 6 5 3 3 4 3 3 1 3 8 8 5 5 7 7 5 5 5 4 3 6 5 2 5 5 2 1 1 3 4 5 10 14 13 11 8 9 10 9 10 11 9 7 7 6
68 69 63 58 50 41 44 53 60 62 56 39 17 8 11 8 4 5 7 6 5 9 11 13 17 17 15 13 10 11 8 6 12 14 11 9 7 8 7 7 9 6 5 6 5 6 6 4 4 5 3 4 8 8 6 7 7 7 5 4 4 5 4 5 4 3 4 4 3 2 1 4 3 3 9 11 10 9 6 7 8 8 9 9 8 8 7 6
68 68 58 47 39 40 52 58 60 62 46 21 10 10 10 8 4 5 8 7 7 10 12 14 18 17 12 9 10 10 4 4 11 11 11 12 10 11 10 8 10 6 6 7 4 4 7 4 3 2 1 6 8 6 5 8 7 5 4 4 5 5 4 2 2 3 2 2 4 3 3 5 4 6 8 5 6 8 7 8 7 7 7 5 6 8 7 6
61 58 49 35 32 45 59 61 60 57 35 14 11 8 6 6 5 7 10 11 13 17 19 17 14 14 10 5 8 11 4 4 11 9 8 11 10 11 10 7 8 7 7 7 2 3 6 3 3 2 2 2 6 5 4 5 5 3 3 5 4 3 5 3 2 1 2 3 4 1 3 5 4 7 8 5 7 9 8 8 7 7 6 5 6 7 6 6
38 34 32 25 34 51 61 62 60 48 25 11 12 9 6 4 5 8 9 11 15 20 22 16 11 14 13 8 11 14 8 7 11 10 8 8 8 11 12 8 9 11 9 6 2 3 5 1 3 2 2 2 1 3 2 2 3 5 6 6 3 2 2 2 2 1 1 6 5 1 3 5 3 5 7 8 7 9 9 8 7 7 6 6 7 7 6 6
20 17 18 24 44 54 58 65 55 32 14 10 12 8 4 3 5 9 10 12 16 18 17 13 11 14 16 14 14 17 15 11 12 11 10 9 6 10 16 10 7 12 9 6 4 2 4 2 3 1 2 2 2 3 2 3 1 4 6 6 5 3 3 2 3 4 4 5 5 3 3 3 4 4 6 8 7 8 10 8 6 7 7 7 8 8 7 6
16 9 7 27 55 56 56 60 40 17 10 12 12 6 3 3 4 9 15 17 18 17 15 13 11 11 14 15 15 16 14 12 14 10 8 9 5 7 16 11 5 11 10 7 6 3 3 4 2 2 1 1 2 1 5 2 3 3 2 3 2 3 4 3 3 3 3 3 3 4 4 4 6 6 6 10 11 10 10 7 6 8 8 7 8 7 7 6
12 5 3 30 57 57 55 46 22 11 12 11 10 5 3 3 3 10 17 19 15 11 11 15 14 11 13 13 14 14 9 8 14 10 4 8 5 4 11 11 7 9 8 6 6 3 3 4 2 2 2 1 2 3 7 6 2 2 3 4 3 2 1 1 2 2 2 3 3 3 4 5 6 5 9 13 13 9 5 4 7 8 7 8 8 7 6 6
8 6 2 28 55 57 45 25 10 10 10 9 9 4 2 5 7 13 18 18 11 2 4 14 15 12 13 13 14 13 9 7 12 9 3 7 7 3 6 9 11 10 6 5 6 4 2 3 4 2 0 3 4 4 4 6 6 5 5 6 7 5 3 3 5 1 1 3 4 2 6 8 5 4 7 11 11 6 3 4 7 8 8 8 7 7 7 6
7 8 6 29 53 49 29 11 8 10 6 7 8 4 4 7 10 15 17 16 9 1 3 9 10 10 10 11 12 11 9 7 11 10 4 6 9 5 6 10 13 12 9 5 5 4 3 4 5 2 3 5 5 2 1 2 1 2 2 4 5 5 6 6 6 3 0 2 2 2 6 8 5 6 7 8 8 6 4 5 7 8 8 7 8 7 6 6
6 9 15 36 53 40 18 8 9 7 4 6 4 3 5 7 11 15 14 13 9 5 7 7 10 12 10 10 12 11 10 6 8 9 5 4 6 5 9 15 16 14 10 6 6 4 3 4 4 0 3 3 4 3 3 3 3 1 2 1 4 4 3 4 5 3 2 4 3 1 8 7 3 4 5 6 6 6 5 6 7 8 7 6 7 7 6 5
6 8 11 30 44 32 15 9 11 8 7 8 6 4 4 4 12 16 16 14 8 7 11 10 13 15 12 12 15 17 16 9 7 8 4 5 6 5 12 19 18 15 11 9 9 7 3 3 5 3 2 3 4 4 3 2 2 1 3 2 4 3 3 2 2 2 3 6 6 5 9 6 2 2 3 4 5 6 7 6 6 7 7 6 6 6 5 4
9 6 5 14 22 18 8 5 10 12 12 15 13 6 4 5 10 15 16 12 3 6 10 7 9 12 11 13 13 15 17 8 5 7 3 4 5 1 10 20 21 17 12 10 11 8 6 5 5 6 6 7 6 5 6 4 2 1 3 5 7 7 7 5 3 4 9 7 8 9 10 4 4 7 6 5 4 6 7 5 4 6 6 6 6 5 5 4
11 5 4 6 5 7 3 2 7 11 12 17 12 5 7 9 8 9 11 8 3 5 7 5 9 10 10 15 13 12 14 3 3 8 7 8 6 1 5 15 17 13 10 13 14 8 4 3 7 10 10 10 8 4 4 8 6 6 7 7 7 7 8 6 4 8 8 3 6 14 10 5 6 6 7 7 5 6 7 5 5 5 5 6 6 5 4 4
8 6 9 8 4 7 3 3 7 9 11 16 9 5 10 12 10 7 5 4 6 8 8 5 12 13 13 19 15 13 15 5 5 10 10 6 3 2 1 7 8 7 9 13 13 8 4 5 9 11 9 6 5 3 7 11 10 10 9 9 9 6 8 8 10 11 5 3 10 9 4 8 9 5 7 9 6 7 8 5 4 6 7 6 4 3 4 5
3 5 9 6 6 11 8 8 14 12 14 16 6 5 10 12 15 13 5 2 6 11 9 6 15 20 22 22 15 12 14 7 4 9 9 6 4 4 4 2 2 1 5 9 8 5 6 7 7 8 7 4 3 5 9 11 10 9 11 13 12 10 12 14 17 12 7 8 15 5 7 13 9 7 10 9 6 9 10 5 3 5 7 6 4 4 4 5
4 5 3 4 2 10 10 14 20 18 19 16 6 6 12 16 18 13 4 5 8 10 10 12 17 22 23 22 16 14 16 13 8 7 8 8 7 7 5 3 1 2 3 7 5 2 5 5 3 7 5 4 3 6 9 10 8 8 11 15 15 16 18 19 20 15 11 16 17 7 11 14 6 8 12 9 7 7 5 4 5 6 7 5 5 6 6 7
4 5 4 4 4 6 8 11 16 16 15 13 6 5 10 17 20 11 3 8 14 11 10 17 20 19 21 22 17 16 22 21 17 14 13 12 9 8 7 5 4 2 3 6 4 1 3 4 2 6 4 4 4 5 5 5 5 6 10 13 16 19 20 20 18 12 11 18 17 12 17 15 5 7 10 8 5 3 4 7 8 7 6 4 5 7 7 8
3 1 4 6 6 8 10 11 12 13 12 11 8 5 8 16 19 12 2 3 11 11 9 17 21 15 15 18 17 18 22 21 20 21 22 20 15 11 7 5 10 10 5 5 5 2 3 2 1 6 5 6 3 5 4 2 3 2 10 16 19 18 16 14 12 11 13 17 16 13 15 11 5 6 6 4 3 3 8 11 9 8 7 5 7 8 9 10
2 2 4 6 5 7 11 10 12 12 11 12 8 3 6 12 13 12 6 2 1 7 10 18 20 13 12 16 18 16 15 12 12 12 12 12 10 8 7 9 15 15 10 7 5 3 6 6 2 5 7 4 2 5 7 7 5 6 13 16 18 15 11 10 10 13 16 14 11 12 12 7 4 5 5 4 5 9 11 10 9 9 7 6 7 8 9 10
Wind_Direction
236 232 231 232 226 216 214 213 207 205 203 200 197 195 193 192 189 189 188 187 185 184 184 185 183 182 180 176 174 170 167 163 160 162 169 178 170 162 161 158 154 158 171 175 175 172 158 347 329 353 356 342 337 334 343 353 36 48 79 109 206 191 198 187 180 192 181 195 203 210 176 155 179 187 161 69 59 60 87 353 320 334 1 197 255 159 160 160
238 235 231 229 230 221 213 214 209 203 201 198 197 196 194 192 190 190 189 186 185 184 184 184 183 183 182 180 177 176 176 173 173 185 187 182 174 170 168 163 153 152 159 155 157 164 161 118 105 62 30 354 326 336 343 346 36 89 118 137 226 203 212 201 176 184 189 196 188 196 187 175 183 168 153 151 173 149 136 304 330 338 356 37 159 148 153 157
238 236 233 227 231 226 215 214 209 203 201 198 196 196 194 192 191 190 190 189 186 185 184 184 185 184 185 184 181 182 178 161 193 225 209 192 182 177 174 174 163 160 161 151 147 155 161 147 124 102 60 339 322 337 342 340 342 130 124 185 247 216 245 249 192 205 209 168 166 198 190 192 198 156 153 164 174 201 188 201 195 208 222 133 156 151 150 156
237 235 235 230 228 226 217 213 209 204 202 199 196 196 194 192 191 190 191 192 191 190 189 190 190 189 190 186 184 182 153 79 271 228 210 194 184 179 176 180 173 171 172 158 148 144 141 130 115 97 84 87 325 339 339 334 347 334 144 190 247 203 260 262 215 231 230 170 169 175 140 186 213 155 153 145 151 231 231 212 194 185 179 162 167 159 155 158
235 234 234 233 228 225 220 213 208 204 202 199 195 196 195 191 191 190 191 193 192 192 192 193 192 190 189 184 182 169 129 62 246 220 212 198 186 184 176 177 178 177 177 164 147 137 131 120 105 79 78 114 340 349 334 328 52 358 246 212 248 218 259 272 231 242 231 161 138 142 164 178 169 163 170 159 174 223 225 210 201 178 167 165 168 166 163 164
233 233 232 233 230 225 221 213 206 204 201 197 195 194 193 192 191 190 190 192 191 191 191 191 189 187 184 178 174 163 147 188 245 208 206 200 193 189 178 174 174 171 171 161 145 137 129 114 110 113 124 121 151 194 253 319 61 88 292 291 277 240 244 282 324 298 196 139 157 170 187 143 137 211 188 180 198 229 271 200 183 178 170 165 163 166 170 172
232 232 231 231 231 227 224 215 204 202 200 196 194 192 191 192 193 190 190 189 189 188 187 187 184 181 177 169 166 165 177 237 314 197 193 192 194 193 188 183 175 169 164 153 141 139 135 132 145 133 132 125 160 198 298 310 74 110 262 319 322 281 245 268 307 307 202 175 199 165 139 149 174 205 154 202 221 295 329 181 152 162 162 160 162 170 179 180
232 232 232 230 230 229 227 218 205 202 201 196 193 192 190 191 193 191 190 189 187 186 185 184 181 176 172 165 159 167 209 235 292 180 181 182 187 190 190 184 179 175 162 158 151 145 142 146 160 140 143 170 151 169 312 315 12 82 280 323 332 309 283 282 299 327 238 198 183 115 155 182 186 169 150 220 232 288 355 126 132 143 152 163 172 178 183 185
232 231 232 230 228 228 227 221 208 202 201 198 193 191 189 190 191 189 189 187 186 185 184 182 178 174 171 162 139 162 207 206 150 170 176 177 179 183 186 176 174 172 159 162 159 151 153 159 167 155 150 168 145 156 159 215 226 48 346 325 321 307 299 296 291 331 346 201 134 150 194 200 130 115 238 233 220 189 108 126 136 144 158 176 181 184 186 189
230 230 232 231 227 225 226 222 212 203 199 197 193 189 188 188 188 188 187 186 185 185 182 180 176 171 167 155 133 179 212 204 174 172 175 176 173 173 179 174 169 167 158 159 161 156 156 152 155 146 120 116 150 151 142 169 201 357 357 325 310 299 289 290 281 284 351 212 165 173 200 284 324 332 250 250 183 138 121 134 153 156 170 182 185 192 190 193
228 228 229 229 227 224 223 223 217 208 200 194 189 185 185 186 185 185 185 185 185 184 181 179 174 169 165 155 159 191 206 197 184 175 176 178 174 172 175 172 168 167 159 157 168 168 159 153 148 134 119 132 145 128 239 205 204 9 2 328 310 308 287 270 271 266 202 133 169 148 160 291 342 272 234 249 161 140 138 152 169 173 180 185 188 193 194 201
227 227 227 227 226 222 220 220 216 210 201 193 186 181 182 184 183 183 185 184 184 183 180 176 172 169 160 153 185 194 189 185 175 174 180 180 174 172 172 172 175 174 166 159 172 178 166 161 153 131 167 147 138 142 235 214 46 18 16 332 308 325 300 259 247 254 181 172 175 134 138 288 246 231 236 243 155 132 138 166 179 186 189 189 192 194 199 205
224 224 226 225 224 221 218 215 208 203 196 188 185 182 182 182 182 183 184 183 183 181 178 173 171 167 155 157 205 181 181 172 167 173 177 175 169 168 168 169 174 177 175 168 172 181 170 166 157 125 141 133 143 187 140 81 41 10 18 334 302 329 304 260 234 220 179 169 170 144 220 262 235 236 235 174 150 126 140 184 188 192 194 192 197 200 206 204
220 221 222 222 221 218 218 214 204 195 191 186 184 184 183 182 181 181 182 182 181 179 175 171 169 165 154 160 178 169 175 161 165 171 170 169 164 160 162 160 161 167 175 169 166 175 171 164 147 104 95 116 148 156 51 23 41 20 335 301 291 307 282 287 295 163 171 189 110 126 213 253 245 248 243 183 164 150 171 195 196 200 197 197 202 205 212 207
217 217 218 220 217 215 215 213 205 195 191 187 184 184 182 181 181 179 179 180 179 177 172 169 169 160 142 195 161 157 160 156 166 171 171 170 158 149 155 150 147 149 154 157 156 162 161 152 128 108 138 344 115 110 57 23 36 49 292 289 305 213 268 301 292 174 176 232 100 127 209 263 259 259 257 199 169 169 188 197 200 204 202 202 205 209 216 216
214 213 215 216 214 213 211 209 205 195 189 187 185 183 180 179 177 175 176 175 175 174 168 167 172 161 144 180 151 147 151 159 171 170 172 174 162 148 144 136 132 135 132 135 144 148 144 128 109 124 131 101 118 112 83 71 1 67 160 249 286 256 274 303 288 224 191 118 135 167 216 265 265 270 296 209 177 178 196 207 207 207 210 208 206 212 216 222
212 210 212 213 212 211 206 205 201 190 186 184 181 179 178 177 174 172 174 172 169 168 166 168 169 156 122 143 146 159 162 159 168 166 167 174 167 151 139 126 125 133 124 124 139 140 118 92 125 155 84 87 135 125 128 183 207 203 149 215 264 248 243 276 282 263 174 123 206 209 225 245 256 279 321 229 186 181 201 214 211 210 216 214 212 216 219 221
209 208 208 210 210 207 204 202 196 187 183 181 179 178 176 172 170 167 162 160 157 159 164 167 162 157 206 179 157 161 162 156 161 162 162 168 164 153 143 133 136 134 122 127 144 133 60 46 103 130 97 140 162 163 180 196 179 164 158 181 252 244 226 247 269 226 163 157 206 197 229 249 259 273 274 218 190 191 210 217 216 218 219 220 218 218 222 225
206 205 205 207 206 203 201 199 195 188 182 179 177 172 167 164 163 160 152 149 152 156 164 169 167 168 167 165 143 139 154 155 155 158 158 158 156 147 134 135 138 136 135 149 176 164 122 92 110 165 180 184 181 184 168 125 129 143 161 185 225 243 241 237 253 249 184 167 212 199 218 242 250 258 249 196 182 201 234 254 240 230 224 225 224 223 226 225
203 201 201 204 202 200 200 196 191 187 183 175 166 159 155 157 155 154 152 154 165 148 137 165 170 111 106 132 121 125 138 143 146 157 160 157 149 132 124 136 131 130 149 154 171 169 130 157 197 195 188 182 179 182 143 114 127 134 135 226 250 247 268 259 253 295 260 178 224 207 215 238 242 252 246 167 164 201 239 252 238 231 224 223 223 225 227 225
199 198 198 200 198 195 197 193 185 182 180 169 162 156 154 162 159 159 151 154 184 12 134 163 153 70 125 133 135 132 125 117 131 156 162 157 146 136 148 152 139 153 157 142 141 125 142 191 206 194 167 162 165 171 158 147 148 112 107 280 280 245 261 267 242 310 330 193 246 217 219 246 247 255 251 143 170 210 216 225 231 226 220 223 226 228 230 232
196 195 195 196 195 191 191 189 180 176 173 166 167 175 160 159 164 160 149 136 184 10 144 155 94 63 119 129 146 143 127 113 139 165 171 163 157 157 174 161 151 159 140 128 123 135 199 212 186 146 139 142 153 165 167 186 194 133 113 285 281 251 275 278 255 286 15 188 269 237 212 252 255 255 248 174 200 233 219 218 228 225 220 225 226 230 232 237
192 191 192 192 192 189 188 187 180 174 169 166 171 182 167 155 152 151 133 102 146 25 131 142 76 107 114 116 153 145 132 142 157 177 183 172 169 164 158 159 153 141 146 158 160 165 199 217 160 141 141 145 155 169 166 190 216 176 168 229 258 261 274 280 297 329 338 162 253 173 215 262 265 266 262 213 211 243 237 225 233 226 221 227 229 234 231 230
188 188 189 189 188 187 186 184 180 177 174 171 171 176 176 160 149 145 113 80 136 19 126 126 84 136 129 135 156 151 138 132 139 167 181 173 158 147 154 156 146 147 172 174 171 177 198 188 150 143 152 157 160 172 176 189 210 206 203 205 235 258 241 252 306 336 325 340 112 99 323 283 258 259 267 241 213 245 250 237 244 236 227 235 243 251 236 228
185 185 186 185 185 184 182 180 180 178 176 175 167 169 173 159 152 146 120 89 105 31 139 134 102 161 133 133 148 149 122 88 90 154 177 177 152 140 153 155 148 167 180 168 165 188 228 190 150 142 160 169 167 182 189 184 187 219 217 205 224 253 267 276 303 347 328 301 256 166 275 275 283 265 255 250 223 240 242 232 238 237 234 238 242 245 238 234
181 183 182 182 182 180 177 177 178 174 173 180 167 163 165 156 154 147 110 89 147 156 170 162 161 163 148 128 128 118 115 125 314 147 168 185 169 147 152 157 131 169 172 160 155 193 201 181 159 157 167 171 179 198 196 179 179 223 201 183 214 257 292 282 278 244 241 271 277 203 207 257 306 275 244 251 248 247 244 238 243 242 238 235 232 238 237 235
178 179 179 179 179 175 174 172 173 171 169 180 167 156 153 153 158 157 64 148 183 162 163 164 167 159 157 158 138 128 135 152 108 153 177 181 176 159 161 166 131 151 162 139 180 228 150 158 178 173 168 175 194 203 189 175 175 211 155 157 194 248 290 277 239 215 234 270 295 281 188 248 276 255 253 292 274 267 265 254 255 248 239 237 235 236 236 232
174 176 176 176 176 175 176 169 168 170 172 170 160 151 148 151 155 155 99 183 173 136 137 121 138 141 136 136 140 125 136 135 130 184 190 170 175 145 165 185 159 152 162 153 189 224 147 166 185 176 175 195 199 180 168 170 184 230 175 158 163 153 216 295 229 239 278 317 274 264 167 226 261 270 307 356 248 262 266 252 251 247 237 236 237 237 236 233
172 173 174 173 174 178 180 172 168 167 163 159 153 148 144 141 140 123 210 200 141 128 137 132 135 131 122 127 133 84 119 137 143 171 163 176 207 190 155 184 147 148 174 186 187 198 176 187 181 170 184 202 180 156 166 176 197 225 144 114 71 86 79 51 197 242 321 256 244 236 197 220 261 274 294 324 241 246 259 256 248 245 240 237 239 241 241 238
170 170 171 170 172 178 176 171 170 158 151 151 147 142 134 123 131 164 201 198 124 134 143 156 168 151 144 141 136 121 131 132 86 123 136 221 214 142 100 118 101 136 182 244 225 230 292 233 166 169 194 189 166 170 177 179 181 140 109 104 82 62 42 43 74 92 269 251 244 233 212 212 260 270 227 220 222 214 231 253 254 251 253 250 248 253 252 247
169 169 169 169 171 171 166 162 160 151 147 147 141 134 126 109 144 173 187 178 118 138 141 147 157 151 151 150 150 153 139 117 107 131 158 238 184 143 131 129 100 111 158 221 246 298 4 77 162 198 202 164 152 174 183 178 174 151 126 130 130 148 5 10 354 57 219 248 255 239 198 184 235 259 229 237 248 225 220 237 251 254 260 259 252 256 258 250
168 168 168 170 171 169 167 158 152 149 146 142 135 129 127 127 190 181 170 161 152 167 157 151 159 161 159 156 154 153 140 131 146 155 169 183 185 186 177 179 165 133 175 200 202 307 326 196 216 266 224 171 156 167 180 177 180 179 170 147 149 175 122 222 248 227 228 254 284 244 179 202 236 251 256 263 265 251 231 226 243 253 262 268 262 259 264 254
168 167 168 171 171 170 168 156 151 149 143 137 131 128 140 155 193 160 145 165 171 170 162 156 161 162 157 153 151 148 139 145 166 169 175 171 170 202 221 207 167 145 168 172 153 176 232 279 247 161 208 199 169 170 177 178 185 188 180 164 165 160 166 204 219 255 252 260 280 254 243 259 272 260 243 245 253 254 235 224 239 249 258 269 273 276 276 263
168 167 168 170 171 170 162 152 150 148 142 135 129 142 159 172 176 126 151 177 150 146 153 147 145 147 150 148 148 152 138 142 165 165 170 170 172 197 217 214 185 145 110 151 172 179 184 241 218 175 186 184 177 185 169 149 173 193 170 144 176 175 172 195 199 222 245 271 276 261 221 213 210 257 240 233 258 278 258 237 246 253 259 267 278 282 274 261
169 169 169 167 165 164 157 151 151 148 142 135 134 156 173 168 140 148 170 166 138 137 139 138 139 143 149 146 151 163 146 139 164 161 170 181 189 192 193 201 192 155 130 168 198 176 181 234 258 239 260 167 175 194 151 137 169 198 148 149 202 191 160 167 193 189 193 290 269 236 232 215 207 280 280 264 281 283 267 259 260 261 269 277 275 270 261 256
169 168 168 165 157 157 155 153 153 149 143 138 149 169 189 164 160 173 167 163 159 149 142 143 147 147 148 139 156 174 185 146 157 162 180 188 197 198 192 190 184 171 158 162 161 160 174 253 309 347 359 164 176 182 161 160 172 159 163 193 209 165 153 185 262 39 66 262 260 208 257 289 320 292 297 326 303 283 275 272 266 270 291 297 273 267 266 265
170 161 159 161 157 156 155 154 153 150 143 146 163 174 181 174 174 161 156 162 157 148 146 150 159 160 156 156 169 177 171 145 160 171 176 183 203 203 196 195 181 180 178 154 158 193 155 175 316 71 116 264 214 140 81 359 145 153 191 195 131 92 138 145 242 296 233 244 269 352 251 287 309 279 314 339 304 279 277 275 273 280 289 276 260 255 256 261
158 147 144 153 156 156 156 154 152 148 140 156 170 169 158 171 165 148 148 152 150 154 158 159 166 169 165 165 172 175 166 159 174 178 169 178 213 200 188 195 184 180 184 152 154 210 136 130 313 26 159 283 353 115 127 338 336 162 185 176 140 173 201 149 194 216 212 238 275 314 287 271 216 229 300 306 282 269 272 279 283 273 261 255 257 252 251 258
141 138 135 153 156 156 156 152 147 141 147 164 173 174 161 169 167 154 155 156 157 163 168 168 165 166 169 165 162 168 171 168 170 172 175 185 224 209 182 181 178 178 181 161 162 199 133 132 274 298 249 305 13 149 182 217 349 43 118 169 163 182 195 181 180 183 194 230 267 304 308 272 225 210 227 254 261 260 262 273 278 266 254 250 253 249 247 247
142 130 128 154 155 155 153 148 140 145 161 167 168 171 167 152 152 161 162 162 164 171 176 171 161 156 162 158 154 162 165 158 165 173 190 180 193 229 187 174 166 169 168 159 165 178 135 132 195 291 333 165 189 211 188 177 164 129 145 175 190 180 152 197 205 159 158 197 218 283 287 261 243 211 198 221 242 249 249 261 266 266 261 255 253 248 246 242
147 129 159 158 155 153 149 143 145 159 161 163 157 152 160 139 143 163 169 169 168 195 172 164 160 153 153 153 156 163 153 144 169 175 182 181 178 208 198 167 151 152 146 151 171 174 147 129 147 164 335 198 228 249 196 181 179 174 177 185 187 175 150 200 232 208 96 201 190 216 269 261 246 215 208 222 240 253 253 253 267 277 274 270 265 252 243 242
151 137 157 159 154 151 145 140 161 161 161 164 152 132 141 140 150 165 172 173 172 108 126 150 149 143 148 153 152 157 151 147 173 178 173 184 176 172 175 148 142 155 156 153 178 178 131 110 121 162 215 213 240 274 128 163 147 146 202 192 170 172 165 185 222 227 225 236 149 114 273 265 225 201 216 229 248 267 256 245 264 278 277 275 273 259 246 249
145 133 143 157 156 150 141 143 158 158 163 161 140 105 126 141 157 166 171 176 178 165 153 153 152 152 157 157 147 153 158 149 179 182 145 147 179 184 166 148 144 159 160 154 175 169 123 109 114 36 305 301 306 345 39 37 51 135 253 140 142 196 178 164 190 176 195 223 158 186 265 262 208 191 213 235 263 279 262 242 250 271 285 282 274 271 260 257
126 119 130 160 161 153 145 157 163 161 154 153 149 122 98 134 163 169 175 180 184 167 162 164 165 163 161 160 159 166 168 165 190 189 138 149 188 188 164 157 155 166 179 184 177 173 181 157 123 101 21 349 330 321 302 334 62 186 222 163 177 189 99 116 140 105 232 217 167 201 251 252 256 283 260 254 283 291 270 246 230 253 283 292 288 289 274 258
129 122 105 160 166 157 147 160 161 158 155 159 162 149 120 146 178 181 174 173 189 155 153 160 157 146 142 151 157 169 171 164 170 177 139 148 173 187 172 171 170 178 188 175 156 159 183 175 151 153 171 192 203 222 226 192 122 201 201 189 201 185 171 184 161 199 236 211 166 217 245 260 322 325 320 299 298 295 285 283 257 249 267 286 293 289 272 250
134 125 117 134 155 158 136 38 147 153 157 160 160 155 153 158 185 197 173 169 200 134 119 121 127 115 132 148 146 169 178 137 84 163 166 158 162 284 195 182 181 180 164 146 145 145 149 177 192 193 197 195 191 204 162 132 148 202 194 187 201 194 189 187 179 214 222 158 204 235 247 277 300 314 314 299 283 273 277 287 298 290 279 272 269 269 260 240
131 138 148 134 140 163 120 57 148 157 162 163 156 159 169 164 169 189 195 202 187 142 114 128 143 140 156 159 153 172 176 131 75 155 161 154 140 40 111 170 180 168 137 147 157 139 129 199 204 202 214 202 167 172 149 147 178 193 177 185 198 186 179 189 216 219 159 144 240 234 198 245 252 246 268 277 279 285 282 267 269 287 285 275 266 271 263 248
108 142 155 130 148 168 163 163 166 162 162 165 147 132 163 168 170 178 197 219 179 156 136 150 168 166 166 164 156 160 166 150 127 156 154 146 138 100 72 95 194 188 130 158 174 143 155 205 197 183 213 222 166 174 165 165 186 181 174 192 196 189 192 205 225 221 158 216 244 201 173 228 223 201 239 252 251 270 279 268 239 254 270 276 273 270 258 246
92 121 139 22 101 162 155 157 161 159 162 166 152 146 168 176 178 181 171 147 173 178 161 164 177 172 165 163 156 155 169 172 171 173 158 146 147 136 120 125 222 320 95 148 180 169 169 199 170 150 190 231 204 196 183 173 175 177 192 201 196 198 204 211 223 220 206 235 249 237 238 247 212 192 228 238 240 259 290 297 270 252 249 237 233 246 244 237
118 138 141 72 90 124 112 132 152 156 163 167 166 172 176 179 179 179 175 165 171 185 176 165 170 170 165 166 164 170 182 178 168 168 156 145 155 164 161 168 167 137 113 148 172 236 190 205 150 124 156 239 213 193 198 184 170 182 208 214 209 209 212 216 222 217 220 243 250 251 260 264 228 199 223 236 256 318 318 280 268 265 258 221 213 234 235 237
107 109 124 118 115 121 125 140 153 157 167 176 180 181 180 186 182 168 169 209 173 174 172 157 157 159 163 171 177 181 186 179 168 168 163 159 166 170 164 164 155 146 147 159 158 152 161 185 65 108 162 237 221 148 155 76 47 248 235 225 215 212 213 218 220 209 215 235 242 247 256 255 217 206 222 236 261 265 261 260 257 261 254 218 221 235 233 238
95 61 84 98 96 124 141 148 156 167 181 178 173 169 175 187 186 164 155 309 162 157 153 146 146 149 162 182 192 186 176 164 151 154 155 147 144 134 123 144 154 153 157 162 153 147 151 149 132 147 176 242 326 121 126 81 44 273 248 222 209 209 210 215 226 223 220 226 231 237 244 232 180 179 195 214 229 232 243 247 246 253 249 219 226 237 238 241